FENGYUN 1C DEB

Satellite information

Favourite Embed

Satellite Type and Status

DEBRISIN ORBIT

Key statistics

Satellite FENGYUN 1C DEB at a glance.

Uptime

9555

Days in orbit

Revolutions

≈ 14.3

Per day

Orbit

SSO

Sun Synchronous Orbit

Inclination

98.8

Latest

Satellite identification and parameters

Extended collection of information and parameters for FENGYUN 1C DEB.

Object identification

Identified? True

Debris? True

Object name: FENGYUN 1C DEB

International designator: 1999-025AFE

Object number (NORAD): 30443

Object ID (CCSDS): 30443

Country: PEOPLES REPUBLIC OF CHINA (PRC)

Current information (Y/N): Y

RCS size: SMALL

Orbital parameters

Period: 100.397 minutes

Inclination: 98.8373 deg

SMA: 7155.508 km

Apoapsis: 798.464 km

Periapsis: 756.282 km

RAAN: 130.5079 deg

Eccentricy: 0.0029475

Argument of periapsis: 82.3782 deg

Mean anomaly: 278.0748 deg

Mean motion: 14.34306751 rev/day

Mean motion (dot): 0.00003881 rev/day2

B* drag term: 0.0013906 1/REarth

Two-line elements (TLE)

Creation date: July 6, 2025, 6:05 p.m.

Reference frame: TEME

Reference center: EARTH

Epoch: July 6, 2025, 7:04 a.m. UTC

TLE line 0: 0 FENGYUN 1C DEB

TLE line 1: 1 30443U 99025AFE 25187.29458357 .00003881 00000-0 13906-2 0 9996

TLE line 2: 2 30443 98.8373 130.5079 0029475 82.3782 278.0748 14.34306751951461

Live tracking on map

Real-time ground track for satellite FENGYUN 1C DEB.

In-orbit conjunctions

A list of the most updated potential collisions computed for object FENGYUN 1C DEB.

Target Orbit TCA Probability of collision Miss distance Type
COSMOS 1275 DEB LEO 2025-06-07 02:37:57 0.0001447835 111.0 (m) DEBRIS
SL-8 DEB LEO 2025-03-01 05:01:31 0.0001384746 178.0 (m) DEBRIS
CBERS 1 DEB SSO 2024-12-24 06:24:47 0.0001267533 122.0 (m) DEBRIS
CZ-6A DEB SSO 2024-08-27 02:09:57 0.0002096449 169.0 (m) DEBRIS

Associated space launch

Chinese polar orbiting meteorological satellite

FENGYUN 1C DEB was lifted into orbit during the mission ‘Long March 4B | Feng Yun 1C’, on board a Long March 4B space rocket.

The launch took place on May 10, 1999, 1:33 a.m. from Launch Complex 7.

For more information about the launch, click the button.

Launch to space Long March 4B | Feng Yun 1C
Long March 4B | Feng Yun 1C

Agency: N/A

Status: Launch Successful

Launch date: May 10, 1999, 1:33 a.m. UTC

Rocket: Long March 4B

Launch pad: Launch Complex 7

Location: Taiyuan Satellite Launch Center, People's Republic of China

...

Latest news about this satellite

There are no fresh news available about this satellite. Check back as we update our databases every day.


Newsletter sign-up

Weekly statistics, charts and insights to help you stay on top of the space industry.